Location: Central Falls
(41.8900°N, 71.3929°W)
Time: 11:27:04
(UTC+00:00)

A-11 Canister half - Pass Details

Date: 09 December 2023
Orbit: 1512 x 1687 km, 47.2° (Epoch: 20 February)

Event Time Altitude Azimuth Distance (km) Brightness Sun altitude
Rises 10:29:43 0° 297° (WNW) 4,860 - -16.4°
Reaches altitude 10° 10:32:57 10° 292° (WNW) 3,892 - -15.9°
Exits shadow 10:35:25 20° 286° (WNW) 3,197 10.0 -15.4°
Maximum altitude 10:42:23 49° 222° (SW) 2,070 9.5 -14.2°
Drops below altitude 10° 10:51:58 10° 151° (SSE) 3,943 11.9 -12.5°
Sets 10:55:16 0° 146° (SSE) 4,927 12.6 -11.9°
